Location: Gammelsbach
(49.5261°N, 8.9630°E)
Time: 15:45:08
(UTC+00:00)

USA 290 - Pass Details

Date: 17 June 2025
Orbit: 392 x 417 km, 73.6° (Epoch: 20 June)

Event Time Altitude Azimuth Distance (km) Brightness Sun altitude
Exits shadow 21:12:42 - 202° (SSW) 1,632 4.9 -11.3°
Reaches altitude 10° 21:13:10 10° 202° (SSW) 1,437 4.6 -11.4°
Maximum altitude 21:16:19 87° 115° (ESE) 405 2.1 -11.6°
Drops below altitude 10° 21:19:31 10° 25° (NNE) 1,462 5.5 -11.9°
Sets 21:21:34 0° 25° (NNE) 2,332 6.6 -12.1°
